TimeCST,TemperatureF,Dew PointF,Humidity,Sea Level PressureIn,VisibilityMPH,Wind Direction,Wind SpeedMPH,Gust SpeedMPH,PrecipitationIn,Events,Conditions,WindDirDegrees,DateUTC
12:53 AM,39.9,36.0,86,29.98,9.0,North,16.1,25.3,N/A,,Overcast,10,2013-12-06 06:53:00
1:53 AM,39.0,36.0,89,29.98,8.0,North,20.7,25.3,N/A,,Overcast,10,2013-12-06 07:53:00
2:11 AM,39.2,35.6,87,29.99,9.0,North,18.4,24.2,N/A,,Overcast,360,2013-12-06 08:11:00
2:53 AM,39.0,36.0,89,30.00,5.0,North,20.7,25.3,N/A,,Overcast,350,2013-12-06 08:53:00
3:53 AM,39.0,37.0,93,30.01,5.0,North,21.9,26.5,0.00,,Overcast,350,2013-12-06 09:53:00
4:53 AM,39.0,37.0,93,30.01,6.0,North,16.1,-,N/A,,Overcast,350,2013-12-06 10:53:00
5:53 AM,39.0,37.0,93,30.05,7.0,NNW,13.8,-,N/A,,Overcast,340,2013-12-06 11:53:00
6:53 AM,39.0,37.0,93,30.07,7.0,North,21.9,-,N/A,,Overcast,350,2013-12-06 12:53:00
7:53 AM,37.9,36.0,93,30.09,8.0,North,20.7,-,N/A,,Overcast,350,2013-12-06 13:53:00
8:53 AM,39.0,36.0,89,30.14,10.0,NNW,19.6,31.1,N/A,,Overcast,340,2013-12-06 14:53:00
9:17 AM,37.4,35.6,93,30.16,10.0,NNW,26.5,32.2,N/A,,Overcast,340,2013-12-06 15:17:00
9:53 AM,39.0,35.1,86,30.18,10.0,NNW,25.3,34.5,N/A,,Overcast,340,2013-12-06 15:53:00
10:53 AM,39.0,36.0,89,30.19,10.0,North,24.2,32.2,0.00,Rain,Light Rain,350,2013-12-06 16:53:00
11:53 AM,39.9,36.0,86,30.19,10.0,North,24.2,34.5,0.00,,Overcast,360,2013-12-06 17:53:00
12:00 PM,41.0,35.6,81,30.19,10.0,North,25.3,34.5,N/A,,Overcast,350,2013-12-06 18:00:00
12:53 PM,44.1,36.0,73,30.17,10.0,North,23.0,28.8,N/A,,Overcast,350,2013-12-06 18:53:00
1:53 PM,45.0,36.0,71,30.16,10.0,North,21.9,28.8,N/A,,Overcast,360,2013-12-06 19:53:00
2:11 PM,44.6,35.6,71,30.16,10.0,North,24.2,29.9,N/A,,Overcast,360,2013-12-06 20:11:00
2:23 PM,44.6,35.6,71,30.17,10.0,North,23.0,27.6,N/A,,Overcast,360,2013-12-06 20:23:00
2:53 PM,43.0,36.0,76,30.17,10.0,North,23.0,29.9,N/A,,Overcast,350,2013-12-06 20:53:00
3:53 PM,43.0,36.0,76,30.19,10.0,North,19.6,31.1,N/A,,Overcast,350,2013-12-06 21:53:00
4:26 PM,42.8,35.6,76,30.20,10.0,North,25.3,31.1,N/A,,Overcast,350,2013-12-06 22:26:00
4:53 PM,43.0,35.1,74,30.22,10.0,North,24.2,32.2,N/A,,Overcast,360,2013-12-06 22:53:00
5:53 PM,39.9,34.0,79,30.25,10.0,North,20.7,29.9,N/A,,Overcast,350,2013-12-06 23:53:00
6:53 PM,39.0,32.0,76,30.27,10.0,NNW,25.3,29.9,N/A,,Overcast,340,2013-12-07 00:53:00
7:53 PM,37.0,30.0,76,30.31,10.0,North,21.9,29.9,N/A,,Overcast,360,2013-12-07 01:53:00
8:53 PM,36.0,28.9,76,30.34,10.0,North,20.7,27.6,N/A,,Overcast,360,2013-12-07 02:53:00
9:53 PM,36.0,28.9,76,30.35,10.0,North,18.4,27.6,N/A,,Overcast,360,2013-12-07 03:53:00
10:53 PM,36.0,30.0,79,30.37,10.0,North,17.3,27.6,N/A,,Overcast,360,2013-12-07 04:53:00
11:53 PM,35.1,28.9,78,30.37,10.0,North,18.4,31.1,N/A,,Overcast,10,2013-12-07 05:53:00